Location: Blackwall
(51.5097°N, 0.0016°W)
Time: 00:42:26
(UTC+00:00)

Cosmos 1933 - Pass Details

Date: 15 May 2026
Orbit: 508 x 512 km, 82.5° (Epoch: 9 June)

Event Time Altitude Azimuth Distance (km) Brightness Sun altitude
Exits shadow 21:20:05 - 191° (SSW) 1,953 5.7 -11.6°
Reaches altitude 10° 21:20:38 10° 192° (SSW) 1,729 5.5 -11.7°
Maximum altitude 21:24:26 83° 279° (W) 523 3.2 -12.0°
Drops below altitude 10° 21:28:16 10° 9° (N) 1,748 6.6 -12.4°
Sets 21:30:25 0° 10° (N) 2,640 7.5 -12.6°
